Location: JKWMA (FRAC)
(33.1803°N, 84.5512°W)
Time: 18:17:52
(UTC-04:00)

Hubble Space Telescope - Pass Details

Date: 29 March 2019
Orbit: 537 x 540 km, 28.5° (Epoch: 22 April)

Event Time Altitude Azimuth Distance (km) Brightness Sun altitude
Rises 21:44:36 0° 264° (W) 2,673 5.4 -22.9°
Reaches altitude 10° 21:46:58 10° 256° (WSW) 1,783 4.1 -23.3°
Enters shadow 21:50:05 35° 213° (SSW) 876 1.9 -23.9°
